Regional Weather Roundup
Issued by NWS

Home | Current Version | Previous Version | Graphics & Text | Print | Product List | Glossary On
Versions: 1 2 3 4 5 6 7 8 9 10 11 12 13 14 15 16 17 18 19 20 21 22 23 24 25 26 27 28 29 30 31 32 33 34 35 36 37 38 39 40 41 42 43 44 45 46 47 48 49 50
000
ASUS43 KMPX 291310
RWRMN
WEATHER ROUNDUP FOR MINNESOTA
NATIONAL WEATHER SERVICE TWIN CITIES/CHANHASSEN MN
800 AM CDT SUN MAR 29 2015


NOTE: "FAIR" INDICATES FEW OR NO CLOUDS BELOW 12,000 FEET WITH NO
SIGNIFICANT WEATHER AND/OR OBSTRUCTIONS TO VISIBILITY. N/A MEANS
CURRENT SKY AND/OR WEATHER CONDITIONS ARE NOT AVAILABLE.

MNZ060>063-068>070-291400-
   Twin Cities Metro

CITY           SKY/WX    TMP DP  RH WIND       PRES   REMARKS
TWIN CITIES    CLOUDY    38  31  76 S13G30    29.63F
ST PAUL        CLOUDY    35  31  85 S12       29.65F WCI  27
CRYSTAL        CLOUDY    38  32  79 S17G25    29.60F
BLAINE         CLOUDY    37  36  93 S13G20    29.60F
LAKEVILLE      CLOUDY    36  30  80 S17       29.63F
EDEN PRAIRIE   CLOUDY    37  31  78 S15G24    29.61F
SOUTH ST PAUL  MOCLDY    36  32  87 S9        29.64F
LAKE ELMO      CLOUDY    34  32  93 S13       29.64F WCI  25
$$
MNZ001>005-007-008-013>017-022>024-027-028-291400-
   Northwest Minnesota

CITY           SKY/WX    TMP DP  RH WIND       PRES   REMARKS
BEMIDJI        LGT RAIN  37  36  97 W9        29.46R
HALLOCK        CLOUDY    36  34  93 NW26G35   29.65R
ROSEAU         CLOUDY    36  30  80 NW30      29.55R
WARROAD        CLOUDY    36  32  87 NW21G33   29.52R
THIEF RVR FALL CLOUDY    37  34  87 NW25G33   29.58R
CROOKSTON      CLOUDY    36  36 100 N35G43    29.63R
FOSSTON        RAIN      37  36  93 NW33G43   29.53R
DETROIT LAKES  RAIN      37  36  93 NW29G37   29.54R
MOORHEAD       LGT RAIN  41  39  93 NW33G44   29.62R
PARK RAPIDS    RAIN      38  36  92 W9        29.46R FOG
MAHNOMEN       RAIN      36  35  94 NW32G38   29.55R
$$
MNZ006-009>011-018-025>026-291400-
   North Central Minnesota

CITY           SKY/WX    TMP DP  RH WIND       PRES   REMARKS
BAUDETTE       LGT RAIN  38  35  89 NW20G26   29.44R
FLAG ISLAND    CLOUDY    36  34  93 NW32      29.48R
INTL FALLS     LGT SNOW  33  31  92 SW7       29.42S FOG     WCI  27
WASKISH        RAIN      37  36  93 SW13      29.45R
BIG FORK       LGT RAIN  36  34  93 SW9       29.44S
LONGVILLE      RAIN      36  34  93 S7        29.46S
GRAND RAPIDS   CLOUDY    34  30  86 S10       29.46S WCI  26
ORR            LGT SNOW  32  30  93 S9        29.41F WCI  24
COOK           LGT SNOW  32  30  93 S6        29.45F WCI  26
WALKER         CLOUDY    35  34  94 SW9       29.45S FOG     WCI  28
$$
MNZ012-019>021-037-291400-
   Northeast Minnesota

CITY           SKY/WX    TMP DP  RH WIND       PRES   REMARKS
DULUTH         CLOUDY    35  27  72 SW23G32   29.49F WCI  23
ELY            LGT SNOW  30  28  93 S9        29.46S VSB 1   WCI  22
HIBBING        LGT SNOW  33  30  88 S8        29.46F FOG     WCI  26
EVELETH        MIX PCPN  32  30  93 SW9       29.48F WCI  24
DULUTH HARBOR  CLOUDY    37  30  75 SW21G30   29.54F
TWO HARBORS    CLOUDY    37  30  75 SW14G23   29.50F
SILVER BAY     CLOUDY    36  27  69 S17G26    29.50F
GRAND MARAIS     N/A     34  28  79 SW14      29.55F WCI  25
G MARAIS ARPRT LGT SNOW  28  21  74 S12G25    29.50F WCI  18
$$
MNZ029>031-032-039>041-046>048-054>057-064-291400-
   West Central Minnesota

CITY           SKY/WX    TMP DP  RH WIND       PRES   REMARKS
FERGUS FALLS   LGT RAIN  39  39 100 NW35G48   29.58R
WHEATON        LGT RAIN  43  39  87 NW22G36   29.63R
MORRIS         CLOUDY    46  39  76 W29G35    29.55R
ALEXANDRIA     CLOUDY    43  38  82 W18G24    29.51F
ELBOW LAKE     LGT RAIN  43  42  96 NW23G33   29.55R
WADENA         RAIN      39  37  93 W12G17    29.47R
GLENWOOD       CLOUDY    43  37  81 W16       29.53F
APPLETON       MOCLDY    46  39  76 W21G28    29.59R
BENSON         CLOUDY    45  37  76 W14       29.57R
ORTONVILLE     CLOUDY    46  37  71 W21G30    29.61R
MADISON        CLEAR     46  37  71 W18G26    29.61R
WILLMAR        FAIR      43  36  75 W15       29.58S
$$
MNZ033>034-036-042>043-049>051-058-059-291400-
   Central Minnesota

CITY           SKY/WX    TMP DP  RH WIND       PRES   REMARKS
ST CLOUD       CLOUDY    36  32  85 S15       29.55F
SAUK CENTRE    CLOUDY    39  35  86 SW13      29.51F
PAYNESVILLE    CLOUDY    37  33  87 S9        29.54F
AITKIN         CLOUDY    39  30  70 S15       29.47S
PINE RIVER     RAIN      36  34  93 S6        29.51S
BRAINERD       CLOUDY    36  31  82 S14       29.49F
STAPLES        LGT RAIN  37  36  93 S10       29.47F
LONG PRAIRIE   CLOUDY    36  34  93 S10       29.50F
LITTLE FALLS   CLOUDY    36  32  87 S9        29.52S
LITCHFIELD     CLOUDY    37  36  93 CALM      29.57F
BUFFALO        CLOUDY    36  32  87 S14G21    29.60F
MAPLE LAKE     CLOUDY    37  34  87 S10G21    29.58F
$$
MNZ037-044-045-052-053-291400-
   East Central Minnesota

CITY           SKY/WX    TMP DP  RH WIND       PRES   REMARKS
PRINCETON      CLOUDY    37  32  81 S10G20    29.57F
MORA           CLOUDY    34  30  86 S12       29.57F WCI  25
CAMBRIDGE      MOCLDY    37  28  70 S12       29.57F
RUSH CITY      CLOUDY    34  30  86 S14G20    29.59F WCI  24
MOOSE LAKE     CLOUDY    34  30  86 S12G22    29.50F WCI  25
HINCKLEY       CLOUDY    34  32  93 S16G23    29.57F WCI  23
CLOQUET        CLOUDY    34  28  80 S16G28    29.49F WCI  23
MCGREGOR       CLOUDY    36  32  87 S17       29.49F
$$
MNZ071>073-080-081-089-090-097-098-291400-
   Southwest Minnesota

CITY           SKY/WX    TMP DP  RH WIND       PRES   REMARKS
MONTEVIDEO     CLEAR     46  39  76 NW16G25   29.60R
GRANITE FALLS  CLEAR     43  37  79 W18       29.63R
CANBY          CLEAR     46  37  70 W23       29.65R
MARSHALL       CLEAR     45  34  65 W23       29.65R
REDWOOD FALLS  CLEAR     43  35  73 W14       29.62R
OLIVIA         CLEAR     37  34  87 W13       29.59S
PIPESTONE      CLEAR     45  36  70 W15       29.70R
WINDOM         CLEAR     43  37  81 SW20G26   29.66S
WORTHINGTON    CLEAR     43  34  70 W15       29.71R
JACKSON        CLEAR     43  36  75 W17G29    29.69R
TRACY          CLEAR     44  37  77 W14G22    29.66R
SLAYTON        CLEAR     41  35  79 W13       29.69R
$$
MNZ065>067-074>077-082>085-091>093-291400-
   South Central Minnesota

CITY           SKY/WX    TMP DP  RH WIND       PRES   REMARKS
MANKATO        CLOUDY    36  28  75 S15G24    29.64F
NEW ULM        CLEAR     37  34  87 S8        29.63S
ST JAMES       CLEAR     43  36  75 SW15      29.66S
FAIRMONT       CLEAR     37  30  75 SW16      29.67S
GLENCOE        CLOUDY    37  34  88 S15G21    29.60F
FARIBAULT      MOCLDY    37  32  81 S13G26    29.66F
OWATONNA       PTCLDY    36  30  80 S23G30    29.68F
WASECA         MOCLDY    36  32  87 S23       29.70F
ALBERT LEA     PTCLDY    36  34  93 S16G24    29.70F
$$
MNZ078>079-086>088-094>096-291400-
   Southeast Minnesota

CITY           SKY/WX    TMP DP  RH WIND       PRES   REMARKS
ROCHESTER      MOSUNNY   33  28  81 S28G40    29.72S WCI  20
RED WING       CLOUDY    37  30  75 S10G16    29.69F
STANTON        MOSUNNY   36  30  79 S20G25    29.65F
DODGE CENTER   MOSUNNY   34  30  86 S20       29.69F WCI  22
WINONA         CLOUDY    36  30  80 S12G20    29.76F
AUSTIN         PTSUNNY   34  28  80 S16       29.73F WCI  23
PRESTON        CLOUDY    32  29  88 S18       29.75F WCI  20
$$
ABBREVIATIONS USED IN REMARKS
   TC - TEMPERATURES IN CELSIUS
  WCI - WIND CHILL INDEX
   HX - HEAT INDEX
  VSB - VISIBILITY
$$



USA.gov is the U.S. government's official web portal to all federal, state and local government web resources and services.